Regional Weather Roundup
Issued by NWS

Home | Current Version | Previous Version | Text Only | Print | Product List | Glossary On
Versions: 1 2 3 4 5 6 7 8 9 10 11 12 13 14 15 16 17 18 19 20 21 22 23 24 25 26 27 28 29 30 31 32 33 34 35 36 37 38 39 40 41 42 43 44 45 46 47 48 49 50
000
ASCA44 KEWX 272020
RWRMX

LATIN AMERICA AND CARIBBEAN REGIONAL WEATHER ROUNDUP
NATIONAL WEATHER SERVICE AUSTIN/SAN ANTONIO TX
300 PM CDT FRI MAR 27 2015

NOTE: "FAIR" INDICATED FEW OR NO CLOUDS BELOW 12,000 FEET WITH NO
SIGNIFICANT WEATHER AND/OR OBSTRUCTIONS TO VISIBILITY.

BAJA CALIFORNIA

CITY           SKY/WX    TMP DP  RH WIND       PRES   REMARKS
LORETO         SUNNY     81  61  50 E16       29.96F
LA PAZ         SUNNY     88  28  11 NW9       29.98F
MEXICALI       SUNNY     91  25   9 CALM      30.04F
S.J. DEL CABO  MOSUNNY   84  50  30 SE20      29.98F
TIJUANA        SUNNY     84  34  16 NW14      30.08F

NORTHWESTERN MEXICO

CITY           SKY/WX    TMP DP  RH WIND       PRES   REMARKS
CULIACAN       MOSUNNY   88  68  51 S7        29.93F HX  91
DURANGO        PTSUNNY   68  37  32 NE7       30.31F
GUAYMAS        SUNNY     84  59  42 S9        29.91F
HERMOSILLO     SUNNY     95  34  11 S6        30.01F HX  90
CD. JUAREZ     SUNNY     75  41  29 E12       30.19F
LOS MOCHIS     SUNNY     86  63  45 SW12      29.95F
OBREGON        SUNNY     90  48  24 W7        29.91F

NORTHEASTERN MEXICO

CITY           SKY/WX    TMP DP  RH WIND       PRES   REMARKS
CHIHUAHUA      SUNNY     73  32  21 E12       30.26F
MATAMOROS      PTSUNNY   75  50  41 W5        30.24F
MONCLOVA       SUNNY     81  48  32 CALM      30.17F
MONTERREY      PTSUNNY   77  25  14 N6        30.19F
NUEVO LAREDO   SUNNY     81  43  26 CALM      30.20F
PIEDRAS NEGRAS SUNNY     79  45  29 SE6       30.20F
REYNOSA        MOSUNNY   75  27  16 SW3       30.19F
SALTILLO       MOSUNNY   68  48  49 NW7       30.29F
TORREON        PTSUNNY   73  43  33 CALM      30.26F
CD. VICTORIA   PTSUNNY   75  43  31 N6        30.21F

WESTERN MEXICO

CITY           SKY/WX    TMP DP  RH WIND       PRES   REMARKS
AGUASCALIENTES PTSUNNY   70  36  28 E3        30.26F
COLIMA         PTSUNNY   82  55  39 W6        30.03F
DEL BAJIO      PTSUNNY   75  45  33 SE8       30.30F
GUADALAJARA    PTSUNNY   79  41  25 CALM      30.16F
MANZANILLO     PTSUNNY   79  72  78 S9        29.91S
MAZATLAN       PTSUNNY   82  64  54 W14       29.91F
P. VALLARTA    PTSUNNY   81  68  65 SW12      29.93F
URUAPAN        PTSUNNY   77  55  47 S12       30.17F

CENTRAL MEXICO

CITY           SKY/WX    TMP DP  RH WIND       PRES   REMARKS
CUERNAVACA     PTSUNNY   84  46  26 CALM      30.10F
MEXICO CITY    LGT RAIN  59  48  67 S10       30.33R
MORELIA        PTSUNNY   75  45  33 NW3       30.22F
POZA RICA      CLOUDY    70  59  68 N12       30.27F
PUEBLA         PTSUNNY   70  45  40 SE7       30.32F
QUERETARO      PTSUNNY   70  48  46 E6        30.32F
S. LUIS POTOSI CLOUDY    63  48  59 SE6       30.31F
TAMPICO        CLOUDY    68  54  60 W7        30.23F
TOLUCA         PTSUNNY   68  34  28 W8        30.39F

SOUTHERN MEXICO

CITY           SKY/WX    TMP DP  RH WIND       PRES   REMARKS
ACAPULCO       PTSUNNY   84  73  70 SW14      29.88F HX  91
B. DE HUATULCO MOSUNNY   86  81  84 SE12        N/A  HX 102
OAXACA         RAIN      73  50  43 NE16      30.19F
P. ESCONDIDO   SUNNY     86  75  70 SW10      30.04F HX  95
VERACRUZ       PTSUNNY   72  52  49 NW23G35   30.12S BLWGSAND
ZIHUATANEJO    PTSUNNY   82  73  74 SW7       29.91F

YUCATAN PENINSULA

CITY           SKY/WX    TMP DP  RH WIND       PRES   REMARKS
CAMPECHE       PTSUNNY   82  75  78 N12G23    29.94F
CANCUN         PTSUNNY   84  73  70 SE15      29.91F HX  91
CHETUMAL       PTSUNNY   86  77  74 E12       29.88F HX  97
CD. DEL CARMEN CLOUDY    81  73  78 N15       29.99F
COZUMEL        PTSUNNY   82  73  74 SE10      29.92F
MERIDA         PTSUNNY   88  66  48 NW17      29.94F HX  90
MINATITLAN     CLOUDY    72  68  88 NW23G35   30.04S
TAPACHULA      PTSUNNY   86  77  74 W12       29.89F HX  97
TUX. GUTIERREZ PTSUNNY   84  63  48 NW18G30   29.98F
VILLAHERMOSA   HVY RAIN  72  72 100 N8        30.07S VSB 3/4

CENTRAL AMERICA

CITY           SKY/WX    TMP DP  RH WIND       PRES   REMARKS
BELIZE CITY    MOSUNNY   86  77  74 NE13      29.88F HX  97
MANAGUA        PTCLDY    93  64  38 SE12      29.80F HX  95

CARIBBEAN

CITY           SKY/WX    TMP DP  RH WIND       PRES   REMARKS
ARUBA          MOSUNNY   88  75  66 E21       29.86F HX  97
CURACAO        MOSUNNY   86  70  58 E16       29.92S HX  90
KINGSTON       PTSUNNY   84  75  74 SE26      29.92S HX  92
NASSAU         PTSUNNY   82  73  74 S20       29.92F
SAN JUAN       MOSUNNY   86  64  48 E18G28    30.02S
SANTO DOMINGO  MOSUNNY   86  72  62 S12       29.97F HX  92
ST. KITTS      MOSUNNY   81  68  65 E14       30.03S
ST. MAARTEN    MOSUNNY   82  68  61 E13       30.03

$$



USA.gov is the U.S. government's official web portal to all federal, state and local government web resources and services.